This demonstration page uses our WeatherBlox Daily Observations layout. Learn more.

36.17497, -115.13722

Hourly Observations for June 13, 2018

Temp ( °F °C ) Dew Point ( °F °C ) Humidity (%) Winds ( mph kmh ) Pressure ( in mb ) Visibility ( mi km ) Precip ( " mm )
12:53 am 00:53 Clear 88 31.1 28 -2.2 11 11 Calm 29.71 1006 10 16.09344 0 0
1:53 am 01:53 Clear 85 29.4 30 -1.1 14 14 WSW 3 6 29.71 1006 10 16.09344 0 0
2:53 am 02:53 Clear 82 27.8 31 -0.6 16 16 NNW 3 6 29.71 1006 10 16.09344 0 0
3:53 am 03:53 Clear 80 26.7 31 -0.6 17 17 NNW 5 7 29.71 1006 10 16.09344 0 0
4:53 am 04:53 Clear 80 26.7 30 -1.1 16 16 NW 5 7 29.71 1006 10 16.09344 0 0
5:53 am 05:53 Sunny 77 25 31 -0.6 18 18 N 6 9 29.74 1007 10 16.09344 0 0
6:53 am 06:53 Sunny 80 26.7 32 0 17 17 N 7 11 29.74 1007 10 16.09344 0 0
7:53 am 07:53 Sunny 86 30 30 -1.1 13 13 ENE 3 6 29.77 1008 10 16.09344 0 0
8:53 am 08:53 Sunny 89 31.7 27 -2.8 11 11 ESE 3 6 29.77 1008 10 16.09344 0 0
9:53 am 09:53 Sunny 93 33.9 31 -0.6 11 11 SSE 5 7 29.77 1008 10 16.09344 0 0
10:53 am 10:53 Sunny 97 36.1 28 -2.2 9 9 SE 10 17 29.77 1008 10 16.09344 0 0
11:53 am 11:53 Sunny 100 37.8 23 -5 6 6 SE 10 17 29.74 1007 10 16.09344 0 0
12:53 pm 12:53 Sunny 103 39.4 22 -5.6 5 5 SSE 14 22 29.71 1006 10 16.09344 0 0
1:53 pm 13:53 Sunny 105 40.6 16 -8.9 4 4 S 12 19 29.71 1006 10 16.09344 0 0
2:53 pm 14:53 Sunny 106 41.1 4 -15.6 2 2 undefined N/A 29.68 1005 10 16.09344 0 0
3:53 pm 15:53 Sunny 106 41.1 3 -16.1 2 2 S 8 13 29.65 1004 10 16.09344 0 0
4:53 pm 16:53 Sunny 106 41.1 11 -11.7 3 3 SSW 17 28 29.62 1003 10 16.09344 0 0
5:53 pm 17:53 Sunny 106 41.1 14 -10 3 3 SW 15 24 29.62 1003 10 16.09344 0 0
6:53 pm 18:53 Sunny 104 40 20 -6.7 5 5 SW 17 28 29.62 1003 10 16.09344 0 0
7:53 pm 19:53 Sunny 101 38.3 20 -6.7 5 5 WSW 10 17 29.62 1003 10 16.09344 0 0
8:53 pm 20:53 Clear 98 36.7 23 -5 7 7 WSW 7 11 29.62 1003 10 16.09344 0 0
9:53 pm 21:53 Clear 95 35 27 -2.8 9 9 S 7 11 29.65 1004 10 16.09344 0 0
10:53 pm 22:53 Clear 94 34.4 28 -2.2 9 9 SSW 8 13 29.65 1004 10 16.09344 0 0
11:53 pm 23:53 Clear 91 32.8 28 -2.2 10 10 W 8 13 29.65 1004 10 16.09344 0 0

Powered by AerisWeather